Location: Hopville
(44.8032°N, 123.1329°W)
Time: 03:47:18
(UTC+00:00)

FENGYUN 3A - Pass Details

Date: 24 January 2021
Orbit: 824 x 836 km, 98.4° (Epoch: 26 February)

Event Time Altitude Azimuth Distance (km) Brightness Sun altitude
Rises 13:20:53 0° 7° (N) 3,375 6.9 -24.5°
Reaches altitude 10° 13:23:19 10° 1° (N) 2,439 6.1 -24.1°
Enters shadow 13:26:43 34° 334° (NNW) 1,345 4.5 -23.5°
